Time,TemperatureF,DewpointF,PressureIn,WindDirection,WindDirectionDegrees,WindSpeedMPH,WindSpeedGustMPH,Humidity,HourlyPrecipIn,Conditions,Clouds,dailyrainin,SoftwareType,DateUTC
2016-07-26 00:04:00,81.2,77.0,29.86,East,98,1.2,0.0,87,0.00,CLR,,0.00,WeatherDisplay:10.37,2016-07-25 15:04:00,
2016-07-26 00:09:00,81.3,77.1,29.86,East,98,1.2,1.2,87,0.00,CLR,,0.00,WeatherDisplay:10.37,2016-07-25 15:09:00,
2016-07-26 00:14:00,81.3,77.1,29.86,ESE,112,2.3,2.3,87,0.00,CLR,,0.00,WeatherDisplay:10.37,2016-07-25 15:14:00,
2016-07-26 00:19:00,81.2,77.0,29.86,SSE,155,2.3,2.3,87,0.00,CLR,,0.00,WeatherDisplay:10.37,2016-07-25 15:19:00,
2016-07-26 00:24:00,81.1,76.9,29.86,SSE,168,3.5,3.5,87,0.00,CLR,,0.00,WeatherDisplay:10.37,2016-07-25 15:24:00,
2016-07-26 00:29:00,80.9,76.7,29.86,SSE,162,3.5,3.5,87,0.00,CLR,,0.00,WeatherDisplay:10.37,2016-07-25 15:29:00,
2016-07-26 00:34:00,80.8,76.6,29.86,South,179,1.2,1.2,87,0.00,CLR,,0.00,WeatherDisplay:10.37,2016-07-25 15:34:00,
2016-07-26 00:39:00,80.7,76.5,29.86,South,179,2.3,2.3,87,0.00,CLR,,0.00,WeatherDisplay:10.37,2016-07-25 15:39:00,
2016-07-26 00:44:00,80.6,76.4,29.86,South,179,1.2,1.2,87,0.00,CLR,,0.00,WeatherDisplay:10.37,2016-07-25 15:44:00,
2016-07-26 00:49:00,80.5,76.6,29.86,South,179,1.2,0.0,88,0.00,CLR,,0.00,WeatherDisplay:10.37,2016-07-25 15:49:00,
2016-07-26 00:54:00,80.6,76.7,29.86,South,179,0.0,0.0,88,0.00,CLR,,0.00,WeatherDisplay:10.37,2016-07-25 15:54:00,
2016-07-26 00:59:00,80.6,77.1,29.85,South,179,0.0,0.0,89,0.00,CLR,,0.00,WeatherDisplay:10.37,2016-07-25 15:59:00,
2016-07-26 01:04:00,80.6,77.1,29.85,South,179,1.2,1.2,89,0.00,CLR,,0.00,WeatherDisplay:10.37,2016-07-25 16:04:00,
2016-07-26 01:09:00,80.6,77.1,29.85,South,179,1.2,1.2,89,0.00,CLR,,0.00,WeatherDisplay:10.37,2016-07-25 16:09:00,
2016-07-26 01:14:00,80.6,77.1,29.85,South,179,0.0,0.0,89,0.00,CLR,,0.00,WeatherDisplay:10.37,2016-07-25 16:14:00,
2016-07-26 01:19:00,80.5,77.0,29.85,South,179,1.2,1.2,89,0.00,CLR,,0.00,WeatherDisplay:10.37,2016-07-25 16:19:00,
2016-07-26 01:24:00,80.5,77.0,29.85,South,175,2.3,2.3,89,0.00,CLR,,0.00,WeatherDisplay:10.37,2016-07-25 16:24:00,
2016-07-26 01:29:00,80.3,76.8,29.85,South,175,1.2,1.2,89,0.00,CLR,,0.00,WeatherDisplay:10.37,2016-07-25 16:29:00,
2016-07-26 01:34:00,80.2,76.7,29.85,South,175,1.2,1.2,89,0.00,CLR,,0.00,WeatherDisplay:10.37,2016-07-25 16:34:00,
2016-07-26 01:39:00,80.1,76.9,29.84,South,174,2.0,2.0,90,0.00,CLR,,0.00,WeatherDisplay:10.37,2016-07-25 16:39:00,
2016-07-26 01:44:00,80.1,76.9,29.84,SSE,166,1.2,1.2,90,0.00,CLR,,0.00,WeatherDisplay:10.37,2016-07-25 16:44:00,
2016-07-26 01:49:00,80.0,76.8,29.84,SSE,165,1.2,1.2,90,0.00,CLR,,0.00,WeatherDisplay:10.37,2016-07-25 16:49:00,
2016-07-26 01:54:00,79.8,76.6,29.84,SSE,165,1.2,1.2,90,0.00,CLR,,0.00,WeatherDisplay:10.37,2016-07-25 16:54:00,
2016-07-26 01:59:00,79.7,76.5,29.84,SSE,166,1.2,1.2,90,0.00,CLR,,0.00,WeatherDisplay:10.37,2016-07-25 16:59:00,
2016-07-26 02:04:00,79.7,76.5,29.84,SSE,166,1.2,1.2,90,0.00,CLR,,0.00,WeatherDisplay:10.37,2016-07-25 17:04:00,
2016-07-26 02:09:00,79.8,76.6,29.84,South,169,1.2,1.2,90,0.00,CLR,,0.00,WeatherDisplay:10.37,2016-07-25 17:09:00,
2016-07-26 02:14:00,79.8,76.6,29.84,South,169,3.5,3.5,90,0.00,CLR,,0.00,WeatherDisplay:10.37,2016-07-25 17:14:00,
2016-07-26 02:19:00,79.7,76.5,29.84,South,169,0.0,0.0,90,0.00,CLR,,0.00,WeatherDisplay:10.37,2016-07-25 17:19:00,
2016-07-26 02:24:00,79.7,76.5,29.84,South,169,0.0,0.0,90,0.00,CLR,,0.00,WeatherDisplay:10.37,2016-07-25 17:24:00,